#timestamp,LO_Frequency,Hit,StdDev 
1542312015.9,286047001.9,P
1542312035.7,286047004.0,P
1542312055.5,286047001.4,N
1542312075.4,286047003.3,Y
1542312095.2,286047002.6,P
1542312115.1,286047000.1,N
1542312116.0,286047000.1,N
1542312135.8,286047002.5,N
1542312155.6,286047001.9,N
1542312175.5,286047000.0,N
1542312195.3,286047002.4,N
1542312215.2,286047002.3,N
1542312235.9,286047002.4,N
1542312255.7,286047001.6,N
1542312275.6,286047001.4,N
1542312295.4,286047005.7,Y
1542312315.2,286047003.9,P
1542312335.1,286047002.2,N
1542312336.0,286047002.2,N
1542312355.8,286047001.5,N
1542312375.7,286047002.4,N
1542312395.5,286047002.2,N
1542312415.3,286047003.6,Y
1542312435.2,286047001.3,P
1542312455.0,286047004.4,P
1542312455.9,286047004.4,P
1542312475.8,286047003.1,N
1542312495.6,286047003.2,N
1542312515.4,286047003.6,Y
1542312535.3,286047001.8,P
1542312555.1,286047002.9,P
1542312575.8,286047003.8,P
1542312595.7,286047002.6,Y
1542312615.5,286047001.0,P
1542312635.4,286047000.3,N
1542312655.2,286047000.2,N
1542312675.0,286047000.5,N
1542312675.9,286047000.5,N
1542312695.8,286047001.0,N
1542312715.6,286047000.1,N
1542312735.5,286047002.8,Y
1542312755.3,286046999.9,P
1542312775.1,286047002.6,P
1542312795.9,286047004.3,P
1542312815.7,286047002.9,N
1542312835.5,286047002.9,N
1542312855.4,286047003.5,N
1542312875.2,286047003.3,N
1542312895.1,286047005.5,Y
1542312896.0,286047005.5,P
1542312915.8,286047002.6,N
1542312935.6,286047002.6,N
1542312955.5,286047004.1,Y
1542312975.3,286046998.3,P
1542312995.2,286047001.0,N
1542313015.9,286047002.2,N
1542313035.7,286047002.2,N
1542313055.6,286047002.1,N
1542313075.4,286046999.8,N
1542313095.2,286047002.3,N
1542313115.1,286047002.6,N
1542313116.0,286047002.6,N
1542313135.8,286047001.6,N
1542313155.7,286047003.4,N
1542313175.5,286047004.0,N
1542313195.3,286047004.0,N
1542313215.2,286047005.9,Y
1542313235.0,286047004.3,P
1542313235.9,286047004.3,P
1542313255.8,286047001.4,N
1542313275.6,286047002.0,N
1542313295.4,286047006.0,Y
1542313315.3,286047001.9,P
1542313335.1,286046999.9,N
1542313355.9,286047000.2,N
1542313375.7,286046998.6,N
1542313395.5,286047000.7,N
1542313415.4,286047000.4,N
1542313435.2,286047002.1,N
1542313455.0,286047001.8,N
1542313455.9,286047001.8,N
1542313475.8,286047003.1,N
1542313495.6,286047003.2,N
1542313515.5,286047003.1,N
1542313535.3,286047002.9,N
1542313555.1,286047004.7,Y
1542313575.9,286047003.7,P
1542313595.7,286047003.3,P
1542313615.5,286047003.5,P
1542313635.4,286047005.4,Y
1542313655.2,286046999.7,P
1542313675.1,286047004.0,N
1542313676.0,286047004.0,N
1542313695.8,286047002.0,N
1542313715.6,286047004.2,N
1542313735.5,286047002.2,N
1542313755.3,286046999.8,N
1542313775.2,286047002.7,N
1542313795.9,286047001.7,N
1542313815.7,286047003.7,N
1542313835.6,286047004.4,N
1542313855.4,286047004.1,N
1542313875.2,286047004.4,N
1542313895.1,286047004.0,N
1542313896.0,286047004.0,N
1542313915.8,286047003.1,N
1542313935.7,286047006.0,Y
1542313955.5,286047000.3,P
1542313975.3,286047000.0,N
1542313995.2,286047000.1,N
1542314015.0,286046998.5,N
1542314015.9,286046998.5,N
1542314035.8,286047000.0,N
1542314055.6,286046998.2,N
1542314075.4,286047001.0,N
1542314095.3,286046999.7,N
1542314115.1,286046998.2,N
1542314135.8,286046998.1,N
1542314155.7,286047000.1,N
1542314175.5,286047001.2,N
1542314195.4,286046998.6,N
1542314215.2,286046998.7,N
1542314235.0,286046998.3,N
1542314235.9,286046998.3,N
1542314255.8,286046999.6,N
1542314275.6,286047001.1,N
1542314295.4,286047000.8,N
1542314315.3,286047000.2,N
1542314335.1,286047001.0,N
1542314355.9,286046998.2,N
1542314375.7,286046998.2,N
1542314395.5,286046998.3,N
1542314415.4,286046999.1,N
1542314435.2,286047001.9,N
1542314455.0,286047000.9,N
1542314455.9,286047000.9,N
1542314475.8,286047000.6,N
1542314495.6,286047000.9,N
1542314515.5,286047000.1,N
1542314535.3,286047000.4,N
1542314555.1,286047000.9,N
1542314575.9,286047000.5,N
1542314595.7,286046999.9,N
1542314615.5,286047000.9,N
1542314635.4,286046999.8,N
1542314655.2,286046999.8,N
1542314675.1,286047002.3,N
1542314676.0,286047002.3,N
1542314695.8,286047004.4,Y
1542314715.6,286047001.8,P
1542314735.5,286047001.9,N
1542314755.3,286047002.7,P
1542314775.2,286047002.7,N
1542314795.9,286047000.6,N
1542314815.7,286046999.4,N
1542314835.6,286046997.7,N
1542314855.4,286046998.8,N
1542314875.2,286046996.7,N
1542314895.1,286046997.5,N
1542314896.0,286046997.5,N
1542314915.8,286046996.9,N
1542314935.7,286047000.4,N
1542314955.5,286047000.0,N
1542314975.3,286047000.8,N
1542314995.2,286046998.5,N
1542315015.0,286046998.4,N
1542315015.9,286046998.4,N
1542315035.7,286046998.8,N
1542315055.6,286047011.9,Y
1542315075.4,286047000.6,P
1542315095.3,286046998.7,N
1542315115.1,286046999.0,N
1542315135.8,286046998.2,N
1542315155.7,286046996.5,Y
1542315175.5,286047000.8,P
1542315195.4,286046998.6,N
1542315215.2,286046996.8,P
1542315235.0,286046997.2,N
1542315235.9,286046997.2,N
1542315255.8,286046997.1,N
1542315275.6,286046997.7,N
1542315295.5,286046997.7,N
1542315315.3,286046996.9,N
1542315335.1,286047000.5,N
1542315355.9,286046998.1,N
1542315375.7,286046997.0,N
1542315395.5,286046997.1,N
1542315415.4,286046995.3,Y
1542315435.2,286047001.1,P
1542315455.1,286046998.7,N
1542315456.0,286046998.7,N
1542315475.8,286047001.0,N
1542315495.6,286046999.5,N
1542315515.5,286046995.0,Y
1542315535.3,286046997.4,P
1542315555.2,286046994.9,P
1542315575.0,286046997.9,N
1542315575.9,286046997.9,N
1542315595.7,286046997.4,N
